Year,Month,Day,Hour,Minute,Value (Times are PST for windspeed in km/hr)
2010,04,02,00,00,9.50
2010,04,02,00,01,19.00
2010,04,02,00,02,14.00
2010,04,02,00,03,8.00
2010,04,02,00,04,16.80
2010,04,02,00,05,13.80
2010,04,02,00,06,19.40
2010,04,02,00,07,15.10
2010,04,02,00,08,16.10
2010,04,02,00,09,8.40
2010,04,02,00,10,18.60
2010,04,02,00,11,14.00
2010,04,02,00,12,17.20
2010,04,02,00,13,12.00
2010,04,02,00,14,16.10
2010,04,02,00,15,8.70
2010,04,02,00,16,13.80
2010,04,02,00,17,17.90
2010,04,02,00,18,10.20
2010,04,02,00,19,9.60
2010,04,02,00,20,7.20
2010,04,02,00,21,13.10
2010,04,02,00,22,10.60
2010,04,02,00,23,14.30
2010,04,02,00,24,14.50
2010,04,02,00,25,22.20
2010,04,02,00,26,12.40
2010,04,02,00,27,14.30
2010,04,02,00,28,8.20
2010,04,02,00,29,14.60
2010,04,02,00,30,18.90
2010,04,02,00,31,24.00
2010,04,02,00,32,16.40
2010,04,02,00,33,9.60
2010,04,02,00,34,14.10
2010,04,02,00,35,16.00
2010,04,02,00,36,22.70
2010,04,02,00,37,11.70
2010,04,02,00,38,8.60
2010,04,02,00,39,10.30
2010,04,02,00,40,16.30
2010,04,02,00,41,15.50
2010,04,02,00,42,11.00
2010,04,02,00,43,15.40
2010,04,02,00,44,6.80
2010,04,02,00,45,11.10
2010,04,02,00,46,9.70
2010,04,02,00,47,10.20
2010,04,02,00,48,16.70
2010,04,02,00,49,10.70
2010,04,02,00,50,18.50
2010,04,02,00,51,11.00
2010,04,02,00,52,13.60
2010,04,02,00,53,15.10
2010,04,02,00,54,22.30
2010,04,02,00,55,20.10
2010,04,02,00,56,16.40
2010,04,02,00,57,16.30
2010,04,02,00,58,10.20
2010,04,02,00,59,17.10
2010,04,02,01,00,22.20
2010,04,02,01,01,13.30
2010,04,02,01,02,6.50
2010,04,02,01,03,11.10
2010,04,02,01,04,17.90
2010,04,02,01,05,12.10
2010,04,02,01,06,13.50
2010,04,02,01,07,12.40
2010,04,02,01,08,15.00
2010,04,02,01,09,12.10
2010,04,02,01,10,16.90
2010,04,02,01,11,23.00
2010,04,02,01,12,17.30
2010,04,02,01,13,11.50
2010,04,02,01,14,17.30
2010,04,02,01,15,14.30
2010,04,02,01,16,11.80
2010,04,02,01,17,15.40
2010,04,02,01,18,18.50
2010,04,02,01,19,12.10
2010,04,02,01,20,21.60
2010,04,02,01,21,12.80
2010,04,02,01,22,20.60
2010,04,02,01,23,12.40
2010,04,02,01,24,22.00
2010,04,02,01,25,20.20
2010,04,02,01,26,16.30
2010,04,02,01,27,10.90
2010,04,02,01,28,13.70
2010,04,02,01,29,18.10
2010,04,02,01,30,14.40
2010,04,02,01,31,13.30
2010,04,02,01,32,16.60
2010,04,02,01,33,14.60
2010,04,02,01,34,10.50
2010,04,02,01,35,11.40
2010,04,02,01,36,9.70
2010,04,02,01,37,12.20
2010,04,02,01,38,8.80
2010,04,02,01,39,13.80
2010,04,02,01,40,16.10
2010,04,02,01,41,11.80
2010,04,02,01,42,11.70
2010,04,02,01,43,11.10
2010,04,02,01,44,13.10
2010,04,02,01,45,17.20
2010,04,02,01,46,14.50
2010,04,02,01,47,16.40
2010,04,02,01,48,14.80
2010,04,02,01,49,21.30
2010,04,02,01,50,20.70
2010,04,02,01,51,12.20
2010,04,02,01,52,14.80
2010,04,02,01,53,18.70
2010,04,02,01,54,12.40
2010,04,02,01,55,18.30
2010,04,02,01,56,18.70
2010,04,02,01,57,18.80
2010,04,02,01,58,15.00
2010,04,02,01,59,17.30
2010,04,02,02,00,16.40
2010,04,02,02,01,14.90
2010,04,02,02,02,15.00
2010,04,02,02,03,23.10
2010,04,02,02,04,25.20
2010,04,02,02,05,17.00
2010,04,02,02,06,16.70
2010,04,02,02,07,11.90
2010,04,02,02,08,10.40
2010,04,02,02,09,13.90
2010,04,02,02,10,13.30
2010,04,02,02,11,15.10
2010,04,02,02,12,13.20
2010,04,02,02,13,11.10
2010,04,02,02,14,15.20
2010,04,02,02,15,20.10
2010,04,02,02,16,9.80
2010,04,02,02,17,13.90
2010,04,02,02,18,14.30
2010,04,02,02,19,15.10
2010,04,02,02,20,15.70
2010,04,02,02,21,16.70
2010,04,02,02,22,10.00
2010,04,02,02,23,19.20
2010,04,02,02,24,12.80
2010,04,02,02,25,12.60
2010,04,02,02,26,12.30
2010,04,02,02,27,13.10
2010,04,02,02,28,15.80
2010,04,02,02,29,16.10
2010,04,02,02,30,16.80
2010,04,02,02,31,18.50
2010,04,02,02,32,18.00
2010,04,02,02,33,15.40
2010,04,02,02,34,15.80
2010,04,02,02,35,10.80
2010,04,02,02,36,15.60
2010,04,02,02,37,10.60
2010,04,02,02,38,13.50
2010,04,02,02,39,16.70
2010,04,02,02,40,17.20
2010,04,02,02,41,14.60
2010,04,02,02,42,16.30
2010,04,02,02,43,18.00
2010,04,02,02,44,10.60
2010,04,02,02,45,8.90
2010,04,02,02,46,16.40
2010,04,02,02,47,14.80
2010,04,02,02,48,12.50
2010,04,02,02,49,12.00
2010,04,02,02,50,11.60
2010,04,02,02,51,19.80
2010,04,02,02,52,13.50
2010,04,02,02,53,11.70
2010,04,02,02,54,9.50
2010,04,02,02,55,9.50
2010,04,02,02,56,9.40
2010,04,02,02,57,19.30
2010,04,02,02,58,9.80
2010,04,02,02,59,10.20
2010,04,02,03,00,12.20
2010,04,02,03,01,8.80
2010,04,02,03,02,9.20
2010,04,02,03,03,12.90
2010,04,02,03,04,13.90
2010,04,02,03,05,14.00
2010,04,02,03,06,14.40
2010,04,02,03,07,17.10
2010,04,02,03,08,15.00
2010,04,02,03,09,13.90
2010,04,02,03,10,10.70
2010,04,02,03,11,9.50
2010,04,02,03,12,11.40
2010,04,02,03,13,11.10
2010,04,02,03,14,9.10
2010,04,02,03,15,8.90
2010,04,02,03,16,12.60
2010,04,02,03,17,12.20
2010,04,02,03,18,10.40
2010,04,02,03,19,13.20
2010,04,02,03,20,11.30
2010,04,02,03,21,9.20
2010,04,02,03,22,11.60
2010,04,02,03,23,13.10
2010,04,02,03,24,12.10
2010,04,02,03,25,15.00
2010,04,02,03,26,7.90
2010,04,02,03,27,6.20
2010,04,02,03,28,10.60
2010,04,02,03,29,9.50
2010,04,02,03,30,8.40
2010,04,02,03,31,9.90
2010,04,02,03,32,5.70
2010,04,02,03,33,12.50
2010,04,02,03,34,5.70
2010,04,02,03,35,5.60
2010,04,02,03,36,4.90
2010,04,02,03,37,3.60
2010,04,02,03,38,8.50
2010,04,02,03,39,9.60
2010,04,02,03,40,6.20
2010,04,02,03,41,5.50
2010,04,02,03,42,11.90
2010,04,02,03,43,7.90
2010,04,02,03,44,11.20
2010,04,02,03,45,7.60
2010,04,02,03,46,8.50
2010,04,02,03,47,6.90
2010,04,02,03,48,3.80
2010,04,02,03,49,0.50
2010,04,02,03,50,1.50
2010,04,02,03,51,11.40
2010,04,02,03,52,7.50
2010,04,02,03,53,3.80
2010,04,02,03,54,3.00
2010,04,02,03,55,2.70
2010,04,02,03,56,4.70
2010,04,02,03,57,4.40
2010,04,02,03,58,2.90
2010,04,02,03,59,0.70
2010,04,02,04,00,2.20
2010,04,02,04,01,4.70
2010,04,02,04,02,4.10
2010,04,02,04,03,0.30
2010,04,02,04,04,1.40
2010,04,02,04,05,1.60
2010,04,02,04,06,0.20
2010,04,02,04,07,0.00
2010,04,02,04,08,0.00
2010,04,02,04,09,0.00
2010,04,02,04,10,0.00
2010,04,02,04,11,0.70
2010,04,02,04,12,0.20
2010,04,02,04,13,0.90
2010,04,02,04,14,0.20
2010,04,02,04,15,0.00
2010,04,02,04,16,0.00
2010,04,02,04,17,0.00
2010,04,02,04,18,0.00
2010,04,02,04,19,0.10
2010,04,02,04,20,0.20
2010,04,02,04,21,0.30
2010,04,02,04,22,0.70
2010,04,02,04,23,0.60
2010,04,02,04,24,0.10
2010,04,02,04,25,0.00
2010,04,02,04,26,0.00
2010,04,02,04,27,0.30
2010,04,02,04,28,0.40
2010,04,02,04,29,0.30
2010,04,02,04,30,1.70
2010,04,02,04,31,1.90
2010,04,02,04,32,2.40
2010,04,02,04,33,0.30
2010,04,02,04,34,0.40
2010,04,02,04,35,0.40
2010,04,02,04,36,3.10
2010,04,02,04,37,1.90
2010,04,02,04,38,0.00
2010,04,02,04,39,0.00
2010,04,02,04,40,0.40
2010,04,02,04,41,0.00
2010,04,02,04,42,0.10
2010,04,02,04,43,2.70
2010,04,02,04,44,1.30
2010,04,02,04,45,5.60
2010,04,02,04,46,9.90
2010,04,02,04,47,6.40
2010,04,02,04,48,4.90
2010,04,02,04,49,1.70
2010,04,02,04,50,2.90
2010,04,02,04,51,15.40
2010,04,02,04,52,8.00
2010,04,02,04,53,9.50
2010,04,02,04,54,8.80
2010,04,02,04,55,2.10
2010,04,02,04,56,9.40
2010,04,02,04,57,11.30
2010,04,02,04,58,9.60
2010,04,02,04,59,11.60
2010,04,02,05,00,4.80
2010,04,02,05,01,6.80
2010,04,02,05,02,12.60
2010,04,02,05,03,9.30
2010,04,02,05,04,9.80
2010,04,02,05,05,11.10
2010,04,02,05,06,15.10
2010,04,02,05,07,11.80
2010,04,02,05,08,9.00
2010,04,02,05,09,6.50
2010,04,02,05,10,3.90
2010,04,02,05,11,12.00
2010,04,02,05,12,9.90
2010,04,02,05,13,9.50
2010,04,02,05,14,21.60
2010,04,02,05,15,13.90
2010,04,02,05,16,8.60
2010,04,02,05,17,10.60
2010,04,02,05,18,10.60
2010,04,02,05,19,10.60
2010,04,02,05,20,19.20
2010,04,02,05,21,16.20
2010,04,02,05,22,19.10
2010,04,02,05,23,11.60
2010,04,02,05,24,7.40
2010,04,02,05,25,10.30
2010,04,02,05,26,14.20
2010,04,02,05,27,10.40
2010,04,02,05,28,9.80
2010,04,02,05,29,11.00
2010,04,02,05,30,7.20
2010,04,02,05,31,6.60
2010,04,02,05,32,4.60
2010,04,02,05,33,7.40
2010,04,02,05,34,9.10
2010,04,02,05,35,19.80
2010,04,02,05,36,12.10
2010,04,02,05,37,11.00
2010,04,02,05,38,7.90
2010,04,02,05,39,8.10
2010,04,02,05,40,5.40
2010,04,02,05,41,11.10
2010,04,02,05,42,15.10
2010,04,02,05,43,10.00
2010,04,02,05,44,12.50
2010,04,02,05,45,11.70
2010,04,02,05,46,10.00
2010,04,02,05,47,9.90
2010,04,02,05,48,12.30
2010,04,02,05,49,8.60
2010,04,02,05,50,4.40
2010,04,02,05,51,7.20
2010,04,02,05,52,8.30
2010,04,02,05,53,8.20
2010,04,02,05,54,13.10
2010,04,02,05,55,7.40
2010,04,02,05,56,1.90
2010,04,02,05,57,3.60
2010,04,02,05,58,10.60
2010,04,02,05,59,6.80
2010,04,02,06,00,12.50
2010,04,02,06,01,20.60
2010,04,02,06,02,15.10
2010,04,02,06,03,14.60
2010,04,02,06,04,14.70
2010,04,02,06,05,9.00
2010,04,02,06,06,11.60
2010,04,02,06,07,12.40
2010,04,02,06,08,14.60
2010,04,02,06,09,10.70
2010,04,02,06,10,16.40
2010,04,02,06,11,14.70
2010,04,02,06,12,17.80
2010,04,02,06,13,11.60
2010,04,02,06,14,20.20
2010,04,02,06,15,9.70
2010,04,02,06,16,19.70
2010,04,02,06,17,13.80
2010,04,02,06,18,12.60
2010,04,02,06,19,16.00
2010,04,02,06,20,21.30
2010,04,02,06,21,19.80
2010,04,02,06,22,14.80
2010,04,02,06,23,13.90
2010,04,02,06,24,20.10
2010,04,02,06,25,18.30
2010,04,02,06,26,6.90
2010,04,02,06,27,18.50
2010,04,02,06,28,11.90
2010,04,02,06,29,15.00
2010,04,02,06,30,15.30
2010,04,02,06,31,13.70
2010,04,02,06,32,17.80
2010,04,02,06,33,11.60
2010,04,02,06,34,5.30
2010,04,02,06,35,12.80
2010,04,02,06,36,16.00
2010,04,02,06,37,24.50
2010,04,02,06,38,21.10
2010,04,02,06,39,12.80
2010,04,02,06,40,14.30
2010,04,02,06,41,11.80
2010,04,02,06,42,28.30
2010,04,02,06,43,16.90
2010,04,02,06,44,19.70
2010,04,02,06,45,18.90
2010,04,02,06,46,21.90
2010,04,02,06,47,21.40
2010,04,02,06,48,14.80
2010,04,02,06,49,22.00
2010,04,02,06,50,14.10
2010,04,02,06,51,11.50
2010,04,02,06,52,10.40
2010,04,02,06,53,22.50
2010,04,02,06,54,25.50
2010,04,02,06,55,23.00
2010,04,02,06,56,23.50
2010,04,02,06,57,21.60
2010,04,02,06,58,26.00
2010,04,02,06,59,26.70
2010,04,02,07,00,16.70
2010,04,02,07,01,20.80
2010,04,02,07,02,27.10
2010,04,02,07,03,24.60
2010,04,02,07,04,22.40
2010,04,02,07,05,21.10
2010,04,02,07,06,22.40
2010,04,02,07,07,14.40
2010,04,02,07,08,20.50
2010,04,02,07,09,23.10
2010,04,02,07,10,19.70
2010,04,02,07,11,23.80
2010,04,02,07,12,30.70
2010,04,02,07,13,22.40
2010,04,02,07,14,22.10
2010,04,02,07,15,11.50
2010,04,02,07,16,21.50
2010,04,02,07,17,12.00
2010,04,02,07,18,11.00
2010,04,02,07,19,12.20
2010,04,02,07,20,24.10
2010,04,02,07,21,17.30
2010,04,02,07,22,28.10
2010,04,02,07,23,13.90
2010,04,02,07,24,17.20
2010,04,02,07,25,9.30
2010,04,02,07,26,19.70
2010,04,02,07,27,18.00
2010,04,02,07,28,12.40
2010,04,02,07,29,14.00
2010,04,02,07,30,12.30
2010,04,02,07,31,27.60
2010,04,02,07,32,25.90
2010,04,02,07,33,4.50
2010,04,02,07,34,17.90
2010,04,02,07,35,12.60
2010,04,02,07,36,8.10
2010,04,02,07,37,5.00
2010,04,02,07,38,18.80
2010,04,02,07,39,11.50
2010,04,02,07,40,9.90
2010,04,02,07,41,17.90
2010,04,02,07,42,16.80
2010,04,02,07,43,17.70
2010,04,02,07,44,17.60
2010,04,02,07,45,15.00
2010,04,02,07,46,6.40
2010,04,02,07,47,11.40
2010,04,02,07,48,9.40
2010,04,02,07,49,9.50
2010,04,02,07,50,12.50
2010,04,02,07,51,6.40
2010,04,02,07,52,7.00
2010,04,02,07,53,5.90
2010,04,02,07,54,11.60
2010,04,02,07,55,8.10
2010,04,02,07,56,14.40
2010,04,02,07,57,9.00
2010,04,02,07,58,7.40
2010,04,02,07,59,9.70
2010,04,02,08,00,12.70
2010,04,02,08,01,18.80
2010,04,02,08,02,15.50
2010,04,02,08,03,10.50
2010,04,02,08,04,12.30
2010,04,02,08,05,8.80
2010,04,02,08,06,10.80
2010,04,02,08,07,12.40
2010,04,02,08,08,9.80
2010,04,02,08,09,22.10
2010,04,02,08,10,3.70
2010,04,02,08,11,8.00
2010,04,02,08,12,7.10
2010,04,02,08,13,18.50
2010,04,02,08,14,15.20
2010,04,02,08,15,13.10
2010,04,02,08,16,13.40
2010,04,02,08,17,16.60
2010,04,02,08,18,26.20
2010,04,02,08,19,15.80
2010,04,02,08,20,9.40
2010,04,02,08,21,5.50
2010,04,02,08,22,12.00
2010,04,02,08,23,13.90
2010,04,02,08,24,14.40
2010,04,02,08,25,17.10
2010,04,02,08,26,15.10
2010,04,02,08,27,16.70
2010,04,02,08,28,12.20
2010,04,02,08,29,17.30
2010,04,02,08,30,14.60
2010,04,02,08,31,12.50
2010,04,02,08,32,13.30
2010,04,02,08,33,22.70
2010,04,02,08,34,20.80
2010,04,02,08,35,18.90
2010,04,02,08,36,22.30
2010,04,02,08,37,17.00
2010,04,02,08,38,15.80
2010,04,02,08,39,13.40
2010,04,02,08,40,16.90
2010,04,02,08,41,20.30
2010,04,02,08,42,15.00
2010,04,02,08,43,9.80
2010,04,02,08,44,11.30
2010,04,02,08,45,16.00
2010,04,02,08,46,13.20
2010,04,02,08,47,9.90
2010,04,02,08,48,14.40
2010,04,02,08,49,14.80
2010,04,02,08,50,15.60
2010,04,02,08,51,24.40
2010,04,02,08,52,17.20
2010,04,02,08,53,14.60
2010,04,02,08,54,17.90
2010,04,02,08,55,25.40
2010,04,02,08,56,17.80
2010,04,02,08,57,14.40
2010,04,02,08,58,10.60
2010,04,02,08,59,14.10
2010,04,02,09,00,15.90
2010,04,02,09,01,12.70
2010,04,02,09,02,19.40
2010,04,02,09,03,21.00
2010,04,02,09,04,19.10
2010,04,02,09,05,28.60
2010,04,02,09,06,24.10
2010,04,02,09,07,16.10
2010,04,02,09,08,16.70
2010,04,02,09,09,17.20
2010,04,02,09,10,14.20
2010,04,02,09,11,9.70
2010,04,02,09,12,8.80
2010,04,02,09,13,9.70
2010,04,02,09,14,17.70
2010,04,02,09,15,18.90
2010,04,02,09,16,22.90
2010,04,02,09,17,20.80
2010,04,02,09,18,17.50
2010,04,02,09,19,15.60
2010,04,02,09,20,18.60
2010,04,02,09,21,24.80
2010,04,02,09,22,15.60
2010,04,02,09,23,17.90
2010,04,02,09,24,12.20
2010,04,02,09,25,16.30
2010,04,02,09,26,14.80
2010,04,02,09,27,13.00
2010,04,02,09,28,23.60
2010,04,02,09,29,6.20
2010,04,02,09,30,8.00
2010,04,02,09,31,4.80
2010,04,02,09,32,3.80
2010,04,02,09,33,8.80
2010,04,02,09,34,4.40
2010,04,02,09,35,10.30
2010,04,02,09,36,8.00
2010,04,02,09,37,11.90
2010,04,02,09,38,9.60
2010,04,02,09,39,14.90
2010,04,02,09,40,19.70
2010,04,02,09,41,16.50
2010,04,02,09,42,23.40
2010,04,02,09,43,15.40
2010,04,02,09,44,9.70
2010,04,02,09,45,11.30
2010,04,02,09,46,11.50
2010,04,02,09,47,11.30
2010,04,02,09,48,20.70
2010,04,02,09,49,13.50
2010,04,02,09,50,12.00
2010,04,02,09,51,16.00
2010,04,02,09,52,8.00
2010,04,02,09,53,19.10
2010,04,02,09,54,15.30
2010,04,02,09,55,17.90
2010,04,02,09,56,11.30
2010,04,02,09,57,28.00
2010,04,02,09,58,25.00
2010,04,02,09,59,14.10
2010,04,02,10,00,14.10
2010,04,02,10,01,13.80
2010,04,02,10,02,12.70
2010,04,02,10,03,26.60
2010,04,02,10,04,18.50
2010,04,02,10,05,15.80
2010,04,02,10,06,13.30
2010,04,02,10,07,14.20
2010,04,02,10,08,17.10
2010,04,02,10,09,18.20
2010,04,02,10,10,12.70
2010,04,02,10,11,21.80
2010,04,02,10,12,26.60
2010,04,02,10,13,22.20
2010,04,02,10,14,14.60
2010,04,02,10,15,12.40
2010,04,02,10,16,12.40
2010,04,02,10,17,10.90
2010,04,02,10,18,9.70
2010,04,02,10,19,15.40
2010,04,02,10,20,30.30
2010,04,02,10,21,22.30
2010,04,02,10,22,29.20
2010,04,02,10,23,24.50
2010,04,02,10,24,16.90
2010,04,02,10,25,6.90
2010,04,02,10,26,5.20
2010,04,02,10,27,14.70
2010,04,02,10,28,29.90
2010,04,02,10,29,20.80
2010,04,02,10,30,16.30
2010,04,02,10,31,21.90
2010,04,02,10,32,27.50
2010,04,02,10,33,19.00
2010,04,02,10,34,18.50
2010,04,02,10,35,25.70
2010,04,02,10,36,14.10
2010,04,02,10,37,17.10
2010,04,02,10,38,19.10
2010,04,02,10,39,26.40
2010,04,02,10,40,14.80
2010,04,02,10,41,26.50
2010,04,02,10,42,26.60
2010,04,02,10,43,19.40
2010,04,02,10,44,23.20
2010,04,02,10,45,15.60
2010,04,02,10,46,19.50
2010,04,02,10,47,19.00
2010,04,02,10,48,22.10
2010,04,02,10,49,25.90
2010,04,02,10,50,12.00
2010,04,02,10,51,19.80
2010,04,02,10,52,20.90
2010,04,02,10,53,23.00
2010,04,02,10,54,17.80
2010,04,02,10,55,23.70
2010,04,02,10,56,18.80
2010,04,02,10,57,22.50
2010,04,02,10,58,19.20
2010,04,02,10,59,19.40
2010,04,02,11,00,23.10
2010,04,02,11,01,25.70
2010,04,02,11,02,14.50
2010,04,02,11,03,28.20
2010,04,02,11,04,24.70
2010,04,02,11,05,15.50
2010,04,02,11,06,26.00
2010,04,02,11,07,23.60
2010,04,02,11,08,23.30
2010,04,02,11,09,19.40
2010,04,02,11,10,25.30
2010,04,02,11,11,14.20
2010,04,02,11,12,24.10
2010,04,02,11,13,28.20
2010,04,02,11,14,21.20
2010,04,02,11,15,21.90
2010,04,02,11,16,27.40
2010,04,02,11,17,21.60
2010,04,02,11,18,20.30
2010,04,02,11,19,24.20
2010,04,02,11,20,23.80
2010,04,02,11,21,29.90
2010,04,02,11,22,23.20
2010,04,02,11,23,26.60
2010,04,02,11,24,17.40
2010,04,02,11,25,21.20
2010,04,02,11,26,34.10
2010,04,02,11,27,27.60
2010,04,02,11,28,18.20
2010,04,02,11,29,12.40
2010,04,02,11,30,11.70
2010,04,02,11,31,32.80
2010,04,02,11,32,23.70
2010,04,02,11,33,21.40
2010,04,02,11,34,19.20
2010,04,02,11,35,11.90
2010,04,02,11,36,18.90
2010,04,02,11,37,26.60
2010,04,02,11,38,22.70
2010,04,02,11,39,13.70
2010,04,02,11,40,18.20
2010,04,02,11,41,13.40
2010,04,02,11,42,16.90
2010,04,02,11,43,20.60
2010,04,02,11,44,29.40
2010,04,02,11,45,18.70
2010,04,02,11,46,13.70
2010,04,02,11,47,18.00
2010,04,02,11,48,23.10
2010,04,02,11,49,20.20
2010,04,02,11,50,24.10
2010,04,02,11,51,33.10
2010,04,02,11,52,25.40
2010,04,02,11,53,20.20
2010,04,02,11,54,15.40
2010,04,02,11,55,18.40
2010,04,02,11,56,21.30
2010,04,02,11,57,20.60
2010,04,02,11,58,26.20
2010,04,02,11,59,35.00
2010,04,02,12,00,18.90
2010,04,02,12,01,19.70
2010,04,02,12,02,23.30
2010,04,02,12,03,24.20
2010,04,02,12,04,24.80
2010,04,02,12,05,26.10
2010,04,02,12,06,25.90
2010,04,02,12,07,14.30
2010,04,02,12,08,16.60
2010,04,02,12,09,19.00
2010,04,02,12,10,27.00
2010,04,02,12,11,19.00
2010,04,02,12,12,23.10
2010,04,02,12,13,23.30
2010,04,02,12,14,21.60
2010,04,02,12,15,24.20
2010,04,02,12,16,26.80
2010,04,02,12,17,28.00
2010,04,02,12,18,21.20
2010,04,02,12,19,24.40
2010,04,02,12,20,26.70
2010,04,02,12,21,38.90
2010,04,02,12,22,18.80
2010,04,02,12,23,31.40
2010,04,02,12,24,24.90
2010,04,02,12,25,27.60
2010,04,02,12,26,34.30
2010,04,02,12,27,32.30
2010,04,02,12,28,25.00
2010,04,02,12,29,31.80
2010,04,02,12,30,23.10
2010,04,02,12,31,19.90
2010,04,02,12,32,26.40
2010,04,02,12,33,31.50
2010,04,02,12,34,22.30
2010,04,02,12,35,30.70
2010,04,02,12,36,26.30
2010,04,02,12,37,32.50
2010,04,02,12,38,21.70
2010,04,02,12,39,22.40
2010,04,02,12,40,23.50
2010,04,02,12,41,28.80
2010,04,02,12,42,27.60
2010,04,02,12,43,27.90
2010,04,02,12,44,27.10
2010,04,02,12,45,28.70
2010,04,02,12,46,20.90
2010,04,02,12,47,22.90
2010,04,02,12,48,21.90
2010,04,02,12,49,25.70
2010,04,02,12,50,25.50
2010,04,02,12,51,28.50
2010,04,02,12,52,29.00
2010,04,02,12,53,21.10
2010,04,02,12,54,28.30
2010,04,02,12,55,28.30
2010,04,02,12,56,19.70
2010,04,02,12,57,23.80
2010,04,02,12,58,17.40
2010,04,02,12,59,23.80
2010,04,02,13,00,27.10
2010,04,02,13,01,21.60
2010,04,02,13,02,22.50
2010,04,02,13,03,26.20
2010,04,02,13,04,26.20
2010,04,02,13,05,26.20
2010,04,02,13,06,27.70
2010,04,02,13,07,23.40
2010,04,02,13,08,25.60
2010,04,02,13,09,23.80
2010,04,02,13,10,24.30
2010,04,02,13,11,20.50
2010,04,02,13,12,25.70
2010,04,02,13,13,16.10
2010,04,02,13,14,20.20
2010,04,02,13,15,21.50
2010,04,02,13,16,25.10
2010,04,02,13,17,19.20
2010,04,02,13,18,24.90
2010,04,02,13,19,26.00
2010,04,02,13,20,24.30
2010,04,02,13,21,19.10
2010,04,02,13,22,21.30
2010,04,02,13,23,19.30
2010,04,02,13,24,15.80
2010,04,02,13,25,22.40
2010,04,02,13,26,28.60
2010,04,02,13,27,19.50
2010,04,02,13,28,20.90
2010,04,02,13,29,29.10
2010,04,02,13,30,16.50
2010,04,02,13,31,18.20
2010,04,02,13,32,26.10
2010,04,02,13,33,25.70
2010,04,02,13,34,22.10
2010,04,02,13,35,17.60
2010,04,02,13,36,18.20
2010,04,02,13,37,21.90
2010,04,02,13,38,14.00
2010,04,02,13,39,22.10
2010,04,02,13,40,16.40
2010,04,02,13,41,18.50
2010,04,02,13,42,24.60
2010,04,02,13,43,19.20
2010,04,02,13,44,22.70
2010,04,02,13,45,18.80
2010,04,02,13,46,22.80
2010,04,02,13,47,12.30
2010,04,02,13,48,19.60
2010,04,02,13,49,21.50
2010,04,02,13,50,17.90
2010,04,02,13,51,27.00
2010,04,02,13,52,23.90
2010,04,02,13,53,23.60
2010,04,02,13,54,25.60
2010,04,02,13,55,22.30
2010,04,02,13,56,18.10
2010,04,02,13,57,18.10
2010,04,02,13,58,12.20
2010,04,02,13,59,12.60
2010,04,02,14,00,21.90
2010,04,02,14,01,21.30
2010,04,02,14,02,22.80
2010,04,02,14,03,17.70
2010,04,02,14,04,16.30
2010,04,02,14,05,15.70
2010,04,02,14,06,22.80
2010,04,02,14,07,17.60
2010,04,02,14,08,16.00
2010,04,02,14,09,13.30
2010,04,02,14,10,17.70
2010,04,02,14,11,18.30
2010,04,02,14,12,20.20
2010,04,02,14,13,19.50
2010,04,02,14,14,18.20
2010,04,02,14,15,22.10
2010,04,02,14,16,13.90
2010,04,02,14,17,20.30
2010,04,02,14,18,19.30
2010,04,02,14,19,16.60
2010,04,02,14,20,14.40
2010,04,02,14,21,15.90
2010,04,02,14,22,19.20
2010,04,02,14,23,19.50
2010,04,02,14,24,18.00
2010,04,02,14,25,18.60
2010,04,02,14,26,21.10
2010,04,02,14,27,21.00
2010,04,02,14,28,20.00
2010,04,02,14,29,19.50
2010,04,02,14,30,25.80
2010,04,02,14,31,22.10
2010,04,02,14,32,26.10
2010,04,02,14,33,21.30
2010,04,02,14,34,24.60
2010,04,02,14,35,19.80
2010,04,02,14,36,19.40
2010,04,02,14,37,17.60
2010,04,02,14,38,19.70
2010,04,02,14,39,20.20
2010,04,02,14,40,18.10
2010,04,02,14,41,18.20
2010,04,02,14,42,21.80
2010,04,02,14,43,15.20
2010,04,02,14,44,18.30
2010,04,02,14,45,17.80
2010,04,02,14,46,16.50
2010,04,02,14,47,14.10
2010,04,02,14,48,18.80
2010,04,02,14,49,18.00
2010,04,02,14,50,16.90
2010,04,02,14,51,22.70
2010,04,02,14,52,11.80
2010,04,02,14,53,15.30
2010,04,02,14,54,12.50
2010,04,02,14,55,18.30
2010,04,02,14,56,16.60
2010,04,02,14,57,15.00
2010,04,02,14,58,19.70
2010,04,02,14,59,15.20
2010,04,02,15,00,13.80
2010,04,02,15,01,11.40
2010,04,02,15,02,9.70
2010,04,02,15,03,15.30
2010,04,02,15,04,15.60
2010,04,02,15,05,16.60
2010,04,02,15,06,16.60
2010,04,02,15,07,11.30
2010,04,02,15,08,12.00
2010,04,02,15,09,8.30
2010,04,02,15,10,14.50
2010,04,02,15,11,19.60
2010,04,02,15,12,19.80
2010,04,02,15,13,14.10
2010,04,02,15,14,24.30
2010,04,02,15,15,15.10
2010,04,02,15,16,11.40
2010,04,02,15,17,8.70
2010,04,02,15,18,17.30
2010,04,02,15,19,10.90
2010,04,02,15,20,16.40
2010,04,02,15,21,19.20
2010,04,02,15,22,17.40
2010,04,02,15,23,15.30
2010,04,02,15,24,13.50
2010,04,02,15,25,14.80
2010,04,02,15,26,17.30
2010,04,02,15,27,10.30
2010,04,02,15,28,13.50
2010,04,02,15,29,20.40
2010,04,02,15,30,18.10
2010,04,02,15,31,12.40
2010,04,02,15,32,7.60
2010,04,02,15,33,12.20
2010,04,02,15,34,19.00
2010,04,02,15,35,13.00
2010,04,02,15,36,8.80
2010,04,02,15,37,14.80
2010,04,02,15,38,23.10
2010,04,02,15,39,12.30
2010,04,02,15,40,7.50
2010,04,02,15,41,10.90
2010,04,02,15,42,17.70
2010,04,02,15,43,17.10
2010,04,02,15,44,15.10
2010,04,02,15,45,10.70
2010,04,02,15,46,14.80
2010,04,02,15,47,16.60
2010,04,02,15,48,17.10
2010,04,02,15,49,12.50
2010,04,02,15,50,16.50
2010,04,02,15,51,18.00
2010,04,02,15,52,16.30
2010,04,02,15,53,9.60
2010,04,02,15,54,10.50
2010,04,02,15,55,12.40
2010,04,02,15,56,18.20
2010,04,02,15,57,10.90
2010,04,02,15,58,12.50
2010,04,02,15,59,8.10
2010,04,02,16,00,11.90
2010,04,02,16,01,9.30
2010,04,02,16,02,8.40
2010,04,02,16,03,11.00
2010,04,02,16,04,15.70
2010,04,02,16,05,16.10
2010,04,02,16,06,16.30
2010,04,02,16,07,8.40
2010,04,02,16,08,7.80
2010,04,02,16,09,11.00
2010,04,02,16,10,10.50
2010,04,02,16,11,9.50
2010,04,02,16,12,10.50
2010,04,02,16,13,8.00
2010,04,02,16,14,8.00
2010,04,02,16,15,10.50
2010,04,02,16,16,13.00
2010,04,02,16,17,14.70
2010,04,02,16,18,8.90
2010,04,02,16,19,8.80
2010,04,02,16,20,7.00
2010,04,02,16,21,6.90
2010,04,02,16,22,9.40
2010,04,02,16,23,11.60
2010,04,02,16,24,10.20
2010,04,02,16,25,13.40
2010,04,02,16,26,10.60
2010,04,02,16,27,15.00
2010,04,02,16,28,11.70
2010,04,02,16,29,11.60
2010,04,02,16,30,9.70
2010,04,02,16,31,15.70
2010,04,02,16,32,10.70
2010,04,02,16,33,10.30
2010,04,02,16,34,11.40
2010,04,02,16,35,15.90
2010,04,02,16,36,12.20
2010,04,02,16,37,11.00
2010,04,02,16,38,10.20
2010,04,02,16,39,12.90
2010,04,02,16,40,13.00
2010,04,02,16,41,11.90
2010,04,02,16,42,13.60
2010,04,02,16,43,11.50
2010,04,02,16,44,12.00
2010,04,02,16,45,9.60
2010,04,02,16,46,15.00
2010,04,02,16,47,13.10
2010,04,02,16,48,13.00
2010,04,02,16,49,14.40
2010,04,02,16,50,17.90
2010,04,02,16,51,8.30
2010,04,02,16,52,8.00
2010,04,02,16,53,12.80
2010,04,02,16,54,6.90
2010,04,02,16,55,4.90
2010,04,02,16,56,15.40
2010,04,02,16,57,5.80
2010,04,02,16,58,6.40
2010,04,02,16,59,10.80
2010,04,02,17,00,5.50
2010,04,02,17,01,9.10
2010,04,02,17,02,11.10
2010,04,02,17,03,7.00
2010,04,02,17,04,9.10
2010,04,02,17,05,10.20
2010,04,02,17,06,4.60
2010,04,02,17,07,3.70
2010,04,02,17,08,4.90
2010,04,02,17,09,4.40
2010,04,02,17,10,4.20
2010,04,02,17,11,7.30
2010,04,02,17,12,6.20
2010,04,02,17,13,6.30
2010,04,02,17,14,9.10
2010,04,02,17,15,12.20
2010,04,02,17,16,14.30
2010,04,02,17,17,3.00
2010,04,02,17,18,11.60
2010,04,02,17,19,3.50
2010,04,02,17,20,1.40
2010,04,02,17,21,3.70
2010,04,02,17,22,4.60
2010,04,02,17,23,4.50
2010,04,02,17,24,6.80
2010,04,02,17,25,8.10
2010,04,02,17,26,9.70
2010,04,02,17,27,7.30
2010,04,02,17,28,11.80
2010,04,02,17,29,4.60